Location: Burgberg
(50.1428°N, 11.0671°E)
Time: 00:46:16
(UTC+00:00)

STARLINK-72 - Pass Details

Date: 26 January 2020
Orbit: 528 x 531 km, 53.0° (Epoch: 22 February)

Event Time Altitude Azimuth Distance (km) Brightness Sun altitude
Exits shadow 05:30:06 24° 278° (W) 1,119 4.6 -14.0°
Maximum altitude 05:32:21 60° 351° (N) 610 3.7 -13.7°
Drops below altitude 10° 05:36:21 10° 72° (ENE) 1,783 7.2 -13.1°
Sets 05:38:36 0° 76° (ENE) 2,675 8.3 -12.7°
